[[{"header":{"parameterUnit":"m.s-1","parameterCategory":2,"la1":30.2991,"la2":30.254,"lo1":-89.0895,"lo2":-89.0444,"dy":0.0017,"dx":0.0017,"nx":28,"ny":28,"refTime":"2025-05-15T03:00:00:Z","depth":"0","parameterNumber":2,"parameterNumberName":"U-component_of_CURRENTS"},"data":[0,0,0,0,0,0,0,0,0,0,0,0,0,0,0,0,0,0,0,0,0,0,0,0,0,0,0,0,0,0,0,0,0,0,0,0,0,0,0,0,0,0,0,0,0,0,0,0,0,0,0,0,0,0,0,0,0,0,0.141,0.1411,0,0.1464,0.1464,0.1464,0.1459,0.1458,0.1458,0.1458,0.144,0.144,0.144,0,0,0,0,0,0,0,0,0,0,0,0,0,0.125,0.1253,0.141,0.1411,0.1412,0.1464,0.1464,0.1464,0.1459,0.1458,0.1458,0.1457,0.144,0.144,0.144,0,0,0,0,0,0,0,0,0,0,0,0,0,0.1309,0.1254,0.141,0.1419,0.1421,0.1464,0.1464,0.1464,0.1459,0.1458,0.1458,0.1457,0.144,0.144,0.144,0.1451,0,0,0.144,0.144,0,0,0,0,0,0,0,0,0.1306,0.1314,0.1417,0.1419,0.1421,0.1458,0.1402,0.1458,0.1459,0.1439,0.1458,0.1457,0.1443,0.1443,0.1448,0.145,0.145,0.144,0.1439,0.1439,0.1439,0,0,0,0,0,0,0,0.1302,0.1312,0.1426,0.1418,0.1421,0.1403,0.1411,0.1412,0.1439,0.1441,0.1442,0.1456,0.1443,0.1449,0.1448,0.1449,0.144,0.1439,0.1439,0.1439,0.1413,0.1413,0,0,0,0,0,0,0.1309,0.1309,0.1425,0.1428,0.1366,0.1407,0.1415,0.1443,0.1441,0.1442,0.1456,0.1456,0.1449,0.1448,0.1447,0.144,0.1439,0.1439,0.1439,0.1414,0.1413,0.1413,0,0,0,0,0,0,0.1305,0.1319,0.1423,0.1372,0.1385,0.1411,0.1442,0.1444,0.1448,0.1454,0.1452,0.1458,0.1449,0.1447,0.1435,0.144,0.1439,0.1439,0.1415,0.1414,0.1413,0.1438,0,0,0,0,0,0,0.1301,0.1318,0.1332,0.1374,0.1388,0.1438,0.1443,0.1446,0.146,0.146,0.1455,0.1453,0.1448,0.1436,0.1435,0.1439,0.1439,0.1415,0.1414,0.1413,0.1438,0.1438,0.1438,0,0,0,0,0,0.1295,0.1327,0.1333,0.1346,0.141,0.1438,0.1443,0.1456,0.1461,0.1458,0.1452,0.1453,0.1428,0.1435,0.1435,0.1439,0.1416,0.1415,0.1413,0.1438,0.1438,0.1438,0,0,0,0,0,0,0.1268,0.1332,0.1338,0.1388,0.1404,0.1439,0.1448,0.1458,0.1454,0.1452,0.145,0.1447,0.1434,0.143,0.1439,0.1425,0.1421,0.1419,0.1439,0.1439,0.1439,0.1551,0.1439,0,0,0,0,0,0.127,0.1307,0.1349,0.1382,0.1394,0.1418,0.1431,0.144,0.1451,0.1449,0.1443,0.1436,0.143,0.1429,0.1416,0.1418,0.1512,0.1417,0.1417,0.1417,0.1505,0.1654,0.1679,0.1408,0.1408,0.1408,0,0,0.1268,0.1308,0.1328,0.1377,0.1394,0.1405,0.1423,0.1445,0.1454,0.1448,0.1444,0.1433,0.1427,0.142,0.1415,0.142,0.1527,0.1415,0.1416,0.1507,0.1656,0.1683,0.1708,0.1407,0.1407,0.1407,0,0,0.1268,0.1317,0.1331,0.1347,0.1377,0.1399,0.1405,0.143,0.144,0.1433,0.1435,0.1452,0.1409,0.1444,0.1447,0.1448,0.1516,0.1403,0.151,0.1649,0.1676,0.17,0.1802,0.1836,0.1412,0.1412,0.1412,0,0.1254,0.1299,0.1335,0.1342,0.1374,0.1395,0.1413,0.1421,0.1433,0.1487,0.1425,0.1479,0.1442,0.1528,0.1509,0.1459,0.1543,0.1507,0.1659,0.1686,0.1711,0.181,0.1847,0.1413,0.1413,0.1413,0.1413,0,0.1254,0.1287,0.13,0.1327,0.1352,0.1381,0.1408,0.1436,0.1446,0.1481,0.1553,0.1532,0.1602,0.1548,0.1522,0.1673,0.1672,0.1638,0.1677,0.1741,0.1837,0.1876,0.1415,0.1414,0.1414,0.1414,0,0,0.1245,0.1294,0.1296,0.134,0.1364,0.141,0.1434,0.1522,0.1611,0.1598,0.173,0.1702,0.1758,0.1772,0.1756,0.1855,0.2034,0.1828,0.1835,0.1965,0.2346,0.2254,0.2287,0.2036,0.2044,0.205,0.2325,0,0.1239,0.1284,0.13,0.136,0.1409,0.1458,0.15,0.1579,0.1638,0.1755,0.1812,0.1885,0.182,0.1862,0.1967,0.2015,0.2147,0.1964,0.2239,0.2249,0.219,0.2334,0.2231,0.2462,0.2363,0.237,0.2374,0,0.1238,0.129,0.1349,0.1466,0.1491,0.1523,0.1698,0.1734,0.1888,0.1938,0.2074,0.2111,0.2264,0.2173,0.2417,0.2306,0.2372,0.2402,0.2412,0.2376,0.2233,0.239,0.2537,0.2469,0.2434,0.2429,0.2425,0,0.1287,0.1341,0.142,0.1447,0.1548,0.162,0.1682,0.1819,0.1892,0.209,0.2171,0.2364,0.2444,0.2595,0.2632,0.2562,0.2887,0.2786,0.2792,0.2782,0.2784,0.2762,0.2946,0.3039,0.3038,0.3038,0.3037,0,0.1324,0.1399,0.146,0.1519,0.1629,0.169,0.1831,0.1919,0.2063,0.2177,0.2291,0.2411,0.2559,0.2716,0.2768,0.2909,0.3016,0.2901,0.289,0.2773,0.2748,0.2755,0.2696,0.3048,0.3046,0.3044,0.3042,0,0.1391,0.1421,0.1524,0.1629,0.1658,0.1751,0.1858,0.1969,0.2093,0.2252,0.2313,0.2502,0.2689,0.2821,0.3044,0.3057,0.312,0.3218,0.3044,0.3008,0.2894,0.2836,0.2969,0.2885,0.3304,0.3304,0.3304,0,0.145,0.1504,0.1583,0.1624,0.1676,0.1786,0.1854,0.1971,0.2069,0.2283,0.2367,0.2585,0.2703,0.2997,0.3082,0.3241,0.3146,0.3245,0.3094,0.2962,0.2894,0.2739,0.2646,0.3091,0.3089,0.3087,0.3086,0,0.1566,0.1572,0.1637,0.1685,0.1755,0.1816,0.1921,0.198,0.2127,0.2247,0.2407,0.2513,0.2759,0.287,0.3063,0.3133,0.3077,0.3216,0.3174,0.2863,0.2627,0.251,0.2794,0.3074,0.3075,0.3076,0.3076,0.3077,0.164,0.1673,0.1709,0.1755,0.1797,0.1828,0.1861,0.1963,0.2064,0.2201,0.2353,0.2455,0.2677,0.2898,0.298,0.3031,0.2957,0.2979,0.2961,0.2847,0.2657,0.2886,0.3066,0.3067,0.3068,0.3069,0.3069,0,0.1717,0.173,0.1776,0.1796,0.1795,0.1822,0.1887,0.1899,0.1961,0.2092,0.2202,0.2376,0.2515,0.2691,0.2849,0.2813,0.2689,0.2762,0.2563,0.2513,0.2843,0.2719,0.2715,0.2715,0.2715,0.2715,0.2715,0.2715,0.1764,0.1802,0.1796,0.1781,0.1771,0.174,0.1745,0.1765,0.1818,0.1894,0.1959,0.2083,0.2372,0.2647,0.2702,0.2653,0.2486,0.237,0.2355,0.2612,0.263,0.2648,0.252,0.2475,0.2474,0.1924,0.192,0.1917]},{"header":{"parameterUnit":"m.s-1","parameterCategory":2,"la1":30.2991,"la2":30.254,"lo1":-89.0895,"lo2":-89.0444,"dy":0.0017,"dx":0.0017,"nx":28,"ny":28,"refTime":"2025-05-15T03:00:00:Z","depth":"0","parameterNumber":3,"parameterNumberName":"V-component_of_CURRENTS"},"data":[0,0,0,0,0,0,0,0,0,0,0,0,0,0,0,0,0,0,0,0,0,0,0,0,0,0,0,0,0,0,0,0,0,0,0,0,0,0,0,0,0,0,0,0,0,0,0,0,0,0,0,0,0,0,0,0,0,0,-0.0126,-0.0127,0,-0.019,-0.0191,-0.0192,-0.0225,-0.0226,-0.0226,-0.0226,-0.0267,-0.0268,-0.0269,0,0,0,0,0,0,0,0,0,0,0,0,0,0.0001,-0.0002,-0.0126,-0.0127,-0.0128,-0.019,-0.0191,-0.0192,-0.0225,-0.0226,-0.0226,-0.0226,-0.0267,-0.0268,-0.0269,0,0,0,0,0,0,0,0,0,0,0,0,0,-0.0058,-0.0002,-0.0126,-0.0152,-0.0155,-0.019,-0.0191,-0.0192,-0.0225,-0.0226,-0.0226,-0.0226,-0.0267,-0.0268,-0.027,-0.0276,0,0,-0.0274,-0.0275,0,0,0,0,0,0,0,0,-0.0054,-0.0062,-0.0147,-0.015,-0.0154,-0.02,-0.0162,-0.0219,-0.0225,-0.0198,-0.0226,-0.0226,-0.0243,-0.0246,-0.0258,-0.0278,-0.028,-0.0274,-0.0275,-0.0276,-0.0276,0,0,0,0,0,0,0,-0.005,-0.006,-0.0151,-0.0148,-0.0152,-0.015,-0.0158,-0.0173,-0.0218,-0.0201,-0.0203,-0.0211,-0.0244,-0.0256,-0.0259,-0.0281,-0.0274,-0.0276,-0.0277,-0.0277,-0.0267,-0.0266,0,0,0,0,0,0,-0.0045,-0.0056,-0.0149,-0.0153,-0.0104,-0.0152,-0.0162,-0.0185,-0.0219,-0.0224,-0.0211,-0.0213,-0.0254,-0.0257,-0.0261,-0.0225,-0.0276,-0.0277,-0.0278,-0.0268,-0.0266,-0.0265,0,0,0,0,0,0,-0.0043,-0.0054,-0.0146,-0.0105,-0.0117,-0.0154,-0.018,-0.0186,-0.0198,-0.0227,-0.0232,-0.0216,-0.0254,-0.0258,-0.0263,-0.0229,-0.0278,-0.0279,-0.0269,-0.0267,-0.0266,-0.0183,0,0,0,0,0,0,-0.0039,-0.0053,-0.0068,-0.0105,-0.0119,-0.0168,-0.018,-0.0187,-0.0203,-0.0205,-0.0233,-0.0237,-0.0254,-0.026,-0.0264,-0.0232,-0.0281,-0.0271,-0.0268,-0.0266,-0.0187,-0.0179,-0.0171,0,0,0,0,0,-0.0035,-0.0072,-0.0069,-0.008,-0.014,-0.0169,-0.0175,-0.0201,-0.0203,-0.0211,-0.0218,-0.0236,-0.0248,-0.0261,-0.0266,-0.0233,-0.0272,-0.0269,-0.0266,-0.0191,-0.018,-0.0171,0,0,0,0,0,0,-0.0038,-0.008,-0.0078,-0.0128,-0.0139,-0.0174,-0.0195,-0.0197,-0.0211,-0.0213,-0.023,-0.0234,-0.0227,-0.0243,-0.0256,-0.0223,-0.026,-0.0258,-0.02,-0.0191,-0.0183,-0.0079,-0.0282,0,0,0,0,0,-0.004,-0.0074,-0.0097,-0.0134,-0.0141,-0.0159,-0.0174,-0.0184,-0.0201,-0.0208,-0.0219,-0.0225,-0.022,-0.0216,-0.0231,-0.0213,-0.0186,-0.0193,-0.0185,-0.0178,-0.0096,-0.006,-0.0039,-0.0256,-0.0256,-0.0256,0,0,-0.0054,-0.0079,-0.01,-0.0135,-0.015,-0.0132,-0.0169,-0.0194,-0.0156,-0.021,-0.0179,-0.0209,-0.0214,-0.0195,-0.0191,-0.0201,-0.0108,-0.0174,-0.0168,-0.0088,-0.0054,-0.0033,-0.0014,-0.0254,-0.0255,-0.0255,0,0,-0.0073,-0.0115,-0.0128,-0.0125,-0.0139,-0.0139,-0.0138,-0.0159,-0.015,-0.0136,-0.0149,-0.0137,-0.0161,-0.0126,-0.0116,-0.0066,-0.0078,-0.0099,0.0043,0.0074,0.0094,0.0111,0.0154,0.0175,-0.0081,-0.0081,-0.0081,0,-0.0083,-0.0073,-0.0134,-0.0119,-0.0077,-0.0128,-0.007,-0.0087,-0.0098,-0.0032,-0.0118,-0.0056,-0.0104,0.0014,0.0014,-0.004,-0.0026,0.0001,0.0089,0.0107,0.0124,0.0163,0.0185,-0.0076,-0.0077,-0.0077,-0.0078,0,-0.0081,-0.005,-0.0058,-0.0028,-0.0012,0.0018,0.0022,0.0049,0.0048,0.0072,0.0153,0.0089,0.0165,0.0111,0.007,0.0186,0.0154,0.008,0.0071,0.0151,0.0186,0.0207,-0.007,-0.0072,-0.0073,-0.0074,0,0,-0.0114,-0.0056,-0.0045,0.0066,0.007,0.012,0.0169,0.0276,0.0397,0.0331,0.05,0.0444,0.0436,0.0451,0.0393,0.0398,0.0467,0.0296,0.0295,0.0355,0.0554,0.0479,0.0495,0.0393,0.0397,0.0401,0.0524,0,-0.005,0.0069,0.0059,0.023,0.0336,0.0348,0.0432,0.0508,0.0546,0.0667,0.0636,0.0717,0.0556,0.0594,0.0581,0.0499,0.0532,0.0444,0.0459,0.0462,0.0398,0.0521,0.0406,0.0503,0.0545,0.0548,0.0551,0,0.0009,0.011,0.0293,0.0508,0.0549,0.063,0.0864,0.0921,0.1033,0.1056,0.1125,0.1084,0.1126,0.0936,0.0908,0.0851,0.0751,0.0655,0.0655,0.0596,0.043,0.0433,0.054,0.0331,0.0584,0.0581,0.0579,0,0.0167,0.0309,0.0508,0.0567,0.0737,0.0867,0.0956,0.1082,0.1181,0.1327,0.1398,0.1435,0.1439,0.1338,0.1102,0.1029,0.1034,0.0908,0.0775,0.0768,0.0691,0.0669,0.0626,0.0944,0.0943,0.0943,0.0943,0,0.0318,0.0493,0.0616,0.0753,0.0999,0.1056,0.1308,0.1389,0.1517,0.1654,0.1622,0.1704,0.1525,0.1468,0.1262,0.1095,0.1172,0.0879,0.0822,0.0709,0.0689,0.0517,0.0425,0.0948,0.0947,0.0946,0.0945,0,0.0515,0.0573,0.0825,0.1031,0.1095,0.1285,0.1468,0.1624,0.1717,0.1892,0.1936,0.1937,0.1852,0.1663,0.1495,0.1298,0.1027,0.106,0.0943,0.0871,0.0546,0.0464,0.0501,0.0427,0.0996,0.0995,0.0995,0,0.065,0.0791,0.1024,0.1123,0.1232,0.146,0.1586,0.1717,0.1849,0.2005,0.2092,0.2089,0.2057,0.1816,0.1463,0.1198,0.102,0.0964,0.0812,0.0591,0.0458,0.0417,0.0348,0.0734,0.0732,0.073,0.0728,0,0.0903,0.096,0.1133,0.1317,0.1474,0.1649,0.1842,0.1956,0.2089,0.2211,0.2309,0.2304,0.2056,0.1722,0.1371,0.1151,0.0816,0.0912,0.0719,0.0326,0.0253,0.0128,0.0592,0.0708,0.071,0.0712,0.0713,0.0714,0.1059,0.118,0.1325,0.15,0.1641,0.1788,0.1922,0.2069,0.2237,0.2376,0.2411,0.2355,0.1926,0.1398,0.1147,0.0579,0.0645,0.0374,0.0322,0.0324,0.0178,0.0619,0.0627,0.0628,0.0629,0.063,0.0631,0,0.1216,0.1299,0.1473,0.1643,0.1766,0.1829,0.2036,0.2131,0.2266,0.2357,0.2426,0.2086,0.158,0.1093,0.0374,0.003,-0.0077,-0.0148,-0.0258,-0.0279,0.0128,0.0031,-0.0134,-0.0134,-0.0133,-0.0133,-0.0133,-0.0133,0.1295,0.1444,0.1504,0.1689,0.1784,0.1928,0.2018,0.2144,0.222,0.2235,0.2116,0.207,0.1614,0.0461,-0.0308,-0.0466,-0.0674,-0.0748,-0.0772,-0.0581,-0.0539,-0.0498,-0.0613,-0.0909,-0.091,-0.1206,-0.1209,-0.1212]}],[{"header":{"parameterUnit":"m.s-1","parameterCategory":2,"la1":30.2991,"la2":30.254,"lo1":-89.0895,"lo2":-89.0444,"dy":0.0017,"dx":0.0017,"nx":28,"ny":28,"refTime":"2025-05-15T03:00:00:Z","depth":"2","parameterNumber":2,"parameterNumberName":"U-component_of_CURRENTS"},"data":[0,0,0,0,0,0,0,0,0,0,0,0,0,0,0,0,0,0,0,0,0,0,0,0,0,0,0,0,0,0,0,0,0,0,0,0,0,0,0,0,0,0,0,0,0,0,0,0,0,0,0,0,0,0,0,0,0,0,0.117,0.117,0,0.127,0.1271,0.1273,0.1337,0.1337,0.1337,0.1337,0.1366,0.1366,0.1367,0,0,0,0,0,0,0,0,0,0,0,0,0,0.1107,0.1108,0.1169,0.117,0.1171,0.127,0.1272,0.1273,0.1337,0.1337,0.1337,0.1337,0.1365,0.1366,0.1367,0,0,0,0,0,0,0,0,0,0,0,0,0,0.1168,0.1108,0.1169,0.1211,0.1216,0.1269,0.1272,0.1274,0.1337,0.1337,0.1337,0.1337,0.1365,0.1366,0.1367,0.1376,0,0,0.1371,0.1371,0,0,0,0,0,0,0,0,0.1164,0.1171,0.1204,0.1209,0.1214,0.1287,0.126,0.1303,0.1337,0.1296,0.1337,0.1337,0.1329,0.1334,0.136,0.1377,0.1379,0.1371,0.1372,0.1372,0.1373,0,0,0,0,0,0,0,0.116,0.1167,0.1214,0.1205,0.1211,0.125,0.1259,0.1269,0.1314,0.13,0.1304,0.1307,0.1332,0.1359,0.1361,0.1379,0.1371,0.1372,0.1373,0.1373,0.1378,0.1378,0,0,0,0,0,0,0.1134,0.1163,0.1211,0.1217,0.1183,0.1251,0.126,0.1267,0.1316,0.1323,0.1307,0.131,0.1357,0.136,0.1362,0.1374,0.1372,0.1373,0.1374,0.1379,0.1378,0.1377,0,0,0,0,0,0,0.1133,0.1138,0.1207,0.1188,0.1199,0.1251,0.1259,0.1269,0.1306,0.1321,0.1328,0.1333,0.1357,0.1361,0.1372,0.1375,0.1374,0.1375,0.1379,0.1379,0.1378,0.1397,0,0,0,0,0,0,0.113,0.1137,0.1155,0.1186,0.1199,0.1237,0.1259,0.1271,0.1305,0.131,0.1345,0.1347,0.1358,0.137,0.1373,0.1377,0.1376,0.138,0.1379,0.1378,0.1398,0.1397,0.1397,0,0,0,0,0,0.1128,0.1124,0.1155,0.1162,0.1215,0.1237,0.1248,0.1288,0.1306,0.1322,0.1341,0.1347,0.1365,0.1371,0.1375,0.1379,0.1381,0.1379,0.1378,0.1398,0.1397,0.1397,0,0,0,0,0,0,0.1106,0.1131,0.1165,0.1173,0.121,0.1246,0.1262,0.1292,0.1326,0.1336,0.1349,0.1353,0.1359,0.1362,0.1369,0.1372,0.137,0.1369,0.1383,0.1383,0.1383,0.1468,0.1377,0,0,0,0,0,0.1111,0.1111,0.1156,0.1162,0.1181,0.123,0.1252,0.1284,0.1307,0.1325,0.1342,0.1354,0.1356,0.1365,0.1368,0.138,0.1428,0.1379,0.1379,0.1379,0.1447,0.1547,0.1565,0.1373,0.1373,0.1373,0,0,0.1096,0.1115,0.1115,0.1158,0.1191,0.1227,0.1244,0.1275,0.1308,0.1319,0.1356,0.1355,0.1357,0.1366,0.1369,0.1372,0.1435,0.1377,0.1377,0.1448,0.1549,0.1568,0.1586,0.1372,0.1372,0.1372,0,0,0.1077,0.1095,0.111,0.114,0.1194,0.1224,0.1233,0.1283,0.1309,0.1335,0.1349,0.1371,0.1358,0.1391,0.1394,0.1398,0.1427,0.1364,0.1446,0.154,0.1559,0.1576,0.1574,0.1591,0.1371,0.1371,0.1371,0,0.1076,0.1107,0.1117,0.1152,0.1184,0.1221,0.1266,0.1289,0.1336,0.1381,0.134,0.1407,0.1383,0.1456,0.1442,0.1406,0.1439,0.1446,0.1547,0.1566,0.1584,0.1578,0.1597,0.1371,0.1371,0.1371,0.1371,0,0.1092,0.1123,0.1124,0.1186,0.1215,0.1249,0.1289,0.133,0.135,0.1395,0.1462,0.1455,0.152,0.1476,0.1454,0.1564,0.1531,0.1532,0.1562,0.1606,0.1593,0.1613,0.1373,0.1372,0.1372,0.1372,0,0,0.1089,0.1134,0.1143,0.1195,0.1247,0.1281,0.1323,0.141,0.1493,0.1505,0.1614,0.1597,0.1643,0.1654,0.1641,0.1705,0.1784,0.1676,0.168,0.1698,0.1941,0.1801,0.1808,0.1817,0.1823,0.1827,0.185,0,0.1124,0.1194,0.1201,0.1276,0.1329,0.1367,0.1417,0.1493,0.1545,0.1645,0.1679,0.1736,0.1692,0.1717,0.1794,0.1783,0.1854,0.1775,0.1878,0.188,0.1775,0.1834,0.1715,0.172,0.187,0.1873,0.1876,0,0.1168,0.1216,0.1297,0.1375,0.1404,0.145,0.1588,0.1633,0.1761,0.18,0.1907,0.1922,0.2,0.195,0.2051,0.2005,0.201,0.1998,0.1999,0.1906,0.1783,0.1716,0.1751,0.1909,0.1907,0.1904,0.1902,0,0.1216,0.1284,0.1358,0.1384,0.1476,0.1536,0.1587,0.171,0.1752,0.1911,0.1942,0.209,0.21,0.2189,0.2118,0.2112,0.2208,0.2189,0.2082,0.2067,0.2011,0.1982,0.2339,0.2339,0.2339,0.2338,0.2338,0,0.1269,0.1332,0.1395,0.1447,0.1544,0.1596,0.1706,0.1788,0.1892,0.1942,0.2032,0.2063,0.2168,0.2192,0.2194,0.2165,0.2271,0.2139,0.2103,0.1994,0.1966,0.2186,0.2168,0.2339,0.2339,0.2339,0.2339,0,0.1324,0.136,0.1442,0.154,0.1569,0.1643,0.1699,0.1766,0.1866,0.1931,0.1953,0.2045,0.2071,0.2127,0.2213,0.2194,0.2209,0.2183,0.1987,0.1931,0.199,0.1972,0.2111,0.2107,0.2104,0.2101,0.2099,0,0.1373,0.1417,0.1491,0.1502,0.1546,0.1625,0.1658,0.1754,0.1789,0.1872,0.1884,0.194,0.1948,0.1998,0.2022,0.2046,0.2113,0.1922,0.192,0.2036,0.1987,0.1974,0.1961,0.181,0.1805,0.1801,0.1799,0,0.1435,0.1442,0.1469,0.1475,0.1504,0.1552,0.1602,0.161,0.1694,0.1727,0.1742,0.1754,0.1817,0.1796,0.1824,0.1812,0.1913,0.1844,0.2088,0.1865,0.1749,0.17,0.1699,0.1766,0.1769,0.1771,0.1773,0.1775,0.142,0.1408,0.1378,0.1395,0.1422,0.1443,0.1437,0.146,0.1468,0.1485,0.1555,0.1559,0.1611,0.16,0.1569,0.1584,0.1701,0.1666,0.168,0.1698,0.1639,0.1522,0.148,0.1482,0.1483,0.1484,0.1485,0,0.1332,0.1302,0.1288,0.1254,0.1251,0.1348,0.1359,0.132,0.1273,0.1344,0.1352,0.1269,0.127,0.1355,0.1347,0.1341,0.1359,0.129,0.1336,0.1368,0.1397,0.1326,0.1082,0.1081,0.108,0.1079,0,0,0.124,0.114,0.1124,0.1072,0.1115,0.1105,0.1118,0.1077,0.1098,0.1056,0.1097,0.1182,0.1298,0.1164,0.1155,0.114,0.124,0.1091,0.1415,0.15,0.1527,0.1612,0.1537,0,0,0,0,0]},{"header":{"parameterUnit":"m.s-1","parameterCategory":2,"la1":30.2991,"la2":30.254,"lo1":-89.0895,"lo2":-89.0444,"dy":0.0017,"dx":0.0017,"nx":28,"ny":28,"refTime":"2025-05-15T03:00:00:Z","depth":"2","parameterNumber":3,"parameterNumberName":"V-component_of_CURRENTS"},"data":[0,0,0,0,0,0,0,0,0,0,0,0,0,0,0,0,0,0,0,0,0,0,0,0,0,0,0,0,0,0,0,0,0,0,0,0,0,0,0,0,0,0,0,0,0,0,0,0,0,0,0,0,0,0,0,0,0,0,-0.039,-0.0391,0,-0.0421,-0.0421,-0.0421,-0.0419,-0.0418,-0.0418,-0.0418,-0.0419,-0.0419,-0.0419,0,0,0,0,0,0,0,0,0,0,0,0,0,-0.0223,-0.0226,-0.039,-0.0391,-0.0392,-0.0421,-0.0421,-0.0421,-0.0419,-0.0418,-0.0418,-0.0418,-0.0419,-0.0419,-0.0419,0,0,0,0,0,0,0,0,0,0,0,0,0,-0.0275,-0.0227,-0.039,-0.0397,-0.0398,-0.0421,-0.0421,-0.0421,-0.0419,-0.0418,-0.0418,-0.0418,-0.0419,-0.0419,-0.0419,-0.0423,0,0,-0.042,-0.042,0,0,0,0,0,0,0,0,-0.0272,-0.0281,-0.0395,-0.0397,-0.0398,-0.042,-0.0363,-0.0422,-0.0419,-0.0407,-0.0418,-0.0418,-0.0419,-0.0419,-0.042,-0.0423,-0.0423,-0.042,-0.042,-0.042,-0.042,0,0,0,0,0,0,0,-0.0269,-0.0279,-0.0399,-0.0396,-0.0398,-0.0362,-0.037,-0.0373,-0.041,-0.0408,-0.0408,-0.0418,-0.0419,-0.042,-0.042,-0.0423,-0.042,-0.042,-0.042,-0.042,-0.0385,-0.0384,0,0,0,0,0,0,-0.028,-0.0277,-0.0398,-0.04,-0.0338,-0.0366,-0.0375,-0.0409,-0.041,-0.0412,-0.0419,-0.0418,-0.042,-0.042,-0.042,-0.0377,-0.042,-0.042,-0.042,-0.0386,-0.0385,-0.0384,0,0,0,0,0,0,-0.0277,-0.0291,-0.0396,-0.034,-0.0351,-0.0371,-0.0409,-0.041,-0.0402,-0.042,-0.042,-0.0408,-0.0419,-0.042,-0.0404,-0.0379,-0.042,-0.042,-0.0387,-0.0386,-0.0384,-0.0323,0,0,0,0,0,0,-0.0272,-0.0291,-0.0307,-0.0342,-0.0355,-0.0404,-0.0409,-0.0411,-0.0411,-0.0411,-0.0411,-0.0412,-0.0419,-0.0404,-0.0404,-0.038,-0.042,-0.0389,-0.0387,-0.0385,-0.0326,-0.0319,-0.0314,0,0,0,0,0,-0.0266,-0.0318,-0.0309,-0.0323,-0.0383,-0.0404,-0.0406,-0.0415,-0.0411,-0.0406,-0.0398,-0.0411,-0.0392,-0.0403,-0.0404,-0.0379,-0.039,-0.0387,-0.0385,-0.0329,-0.0321,-0.0314,0,0,0,0,0,0,-0.0265,-0.0324,-0.0314,-0.0382,-0.0379,-0.0405,-0.042,-0.0408,-0.0398,-0.0395,-0.0399,-0.0399,-0.038,-0.0387,-0.0399,-0.0364,-0.0393,-0.039,-0.035,-0.0342,-0.0336,-0.0304,-0.042,0,0,0,0,0,-0.0268,-0.0326,-0.0339,-0.0392,-0.0391,-0.0392,-0.0399,-0.0393,-0.0397,-0.0392,-0.0385,-0.0379,-0.0373,-0.0363,-0.0366,-0.0343,-0.0375,-0.0328,-0.0321,-0.0316,-0.0291,-0.0307,-0.03,-0.0376,-0.0376,-0.0376,0,0,-0.0291,-0.0327,-0.0362,-0.0394,-0.04,-0.0364,-0.0396,-0.0406,-0.0363,-0.0394,-0.0345,-0.0362,-0.0365,-0.0341,-0.0332,-0.034,-0.0322,-0.0313,-0.0308,-0.0285,-0.0304,-0.0296,-0.0289,-0.0375,-0.0375,-0.0375,0,0,-0.0318,-0.0382,-0.0392,-0.038,-0.0375,-0.0371,-0.0364,-0.0359,-0.0347,-0.0311,-0.0319,-0.0312,-0.0301,-0.029,-0.0285,-0.0244,-0.0295,-0.0252,-0.0183,-0.02,-0.0193,-0.0188,-0.0269,-0.0271,-0.0239,-0.0239,-0.0239,0,-0.0325,-0.0324,-0.0394,-0.0359,-0.0331,-0.036,-0.0296,-0.0299,-0.028,-0.0252,-0.0287,-0.0249,-0.0271,-0.0215,-0.0209,-0.0227,-0.0269,-0.0213,-0.0191,-0.0186,-0.0182,-0.0266,-0.0269,-0.0236,-0.0236,-0.0236,-0.0237,0,-0.0303,-0.0283,-0.0295,-0.0251,-0.0242,-0.0212,-0.0201,-0.018,-0.0176,-0.0157,-0.012,-0.0154,-0.0119,-0.0141,-0.0166,-0.013,-0.0186,-0.0191,-0.021,-0.017,-0.0262,-0.0267,-0.0231,-0.0232,-0.0233,-0.0234,0,0,-0.0326,-0.028,-0.0264,-0.0207,-0.0164,-0.0161,-0.01,-0.0038,0.0009,0.0001,0.0069,0.0049,0.0027,0.0031,-0.0005,-0.0032,-0.0077,-0.0095,-0.0098,-0.0176,-0.0164,-0.0243,-0.0257,-0.008,-0.0079,-0.0078,-0.026,0,-0.0242,-0.0142,-0.0144,-0.0039,0.0031,0.0025,0.009,0.0123,0.0126,0.0166,0.0134,0.0148,0.0095,0.0084,0.007,-0.0056,-0.0077,-0.003,-0.0189,-0.0194,-0.0268,-0.0259,-0.0178,-0.0334,-0.0265,-0.0265,-0.0266,0,-0.0148,-0.0094,0.0048,0.0115,0.014,0.0199,0.028,0.0325,0.0361,0.0362,0.038,0.0313,0.0274,0.0213,0.0073,0.01,-0.0001,-0.0104,-0.0113,-0.0199,-0.0279,-0.0352,-0.0345,-0.0274,-0.0274,-0.0273,-0.0272,0,-0.0056,0.0041,0.016,0.0194,0.0271,0.0331,0.0368,0.0419,0.0442,0.0474,0.0449,0.0433,0.0347,0.0265,0.0016,0.005,-0.0181,-0.0154,-0.0309,-0.032,-0.0285,-0.0293,-0.0203,-0.0203,-0.0202,-0.0202,-0.0201,0,0.007,0.0152,0.0218,0.0286,0.0392,0.0425,0.0499,0.055,0.0597,0.0576,0.0553,0.0473,0.0347,0.0168,0.004,-0.0196,-0.0161,-0.0297,-0.0354,-0.027,-0.0274,-0.0231,-0.0231,-0.0208,-0.0207,-0.0206,-0.0204,0,0.0172,0.0232,0.0338,0.0428,0.045,0.0529,0.0544,0.0554,0.0625,0.0591,0.0577,0.0469,0.0239,0.0075,-0.0147,-0.0233,-0.0411,-0.0489,-0.0427,-0.047,-0.0535,-0.0531,-0.063,-0.0634,-0.0637,-0.064,-0.0642,0,0.0232,0.0304,0.0409,0.0423,0.0468,0.053,0.0528,0.0594,0.056,0.0522,0.0471,0.0292,0.0132,-0.0198,-0.0354,-0.0549,-0.0554,-0.0642,-0.0518,-0.0525,-0.057,-0.0561,-0.0552,-0.0479,-0.048,-0.0481,-0.0481,0,0.0273,0.032,0.0343,0.0414,0.0426,0.0453,0.0454,0.0453,0.0452,0.0424,0.032,0.0227,-0.004,-0.0218,-0.0471,-0.0585,-0.0586,-0.0662,-0.068,-0.0383,-0.0397,-0.0437,-0.043,-0.0487,-0.0487,-0.0486,-0.0486,-0.0486,0.0193,0.0207,0.0224,0.0297,0.032,0.0379,0.038,0.0329,0.0318,0.0301,0.0196,0.0129,-0.0057,-0.0307,-0.0507,-0.0651,-0.0646,-0.0677,-0.0668,-0.0661,-0.0609,-0.0627,-0.0757,-0.0757,-0.0758,-0.0759,-0.076,0,0.0049,0.0061,0.0086,0.0126,0.0165,0.0303,0.0293,0.0282,0.0237,0.0246,0.0203,0.0072,-0.0093,-0.0251,-0.0439,-0.0621,-0.0556,-0.068,-0.0533,-0.0529,-0.0525,-0.0458,-0.057,-0.057,-0.057,-0.057,0,0,-0.0102,-0.0146,-0.0084,-0.0034,0.0074,0.0161,0.0221,0.0232,0.0249,0.0243,0.0274,0.0218,0.0009,-0.0109,-0.0333,-0.0425,-0.0428,-0.0444,-0.058,-0.0375,-0.0368,-0.0514,-0.0409,0,0,0,0,0]}],[{"header":{"parameterUnit":"m.s-1","parameterCategory":2,"la1":30.2991,"la2":30.254,"lo1":-89.0895,"lo2":-89.0444,"dy":0.0017,"dx":0.0017,"nx":28,"ny":28,"refTime":"2025-05-15T03:00:00:Z","depth":"4","parameterNumber":2,"parameterNumberName":"U-component_of_CURRENTS"},"data":[0,0,0,0,0,0,0,0,0,0,0,0,0,0,0,0,0,0,0,0,0,0,0,0,0,0,0,0,0,0,0,0,0,0,0,0,0,0,0,0,0,0,0,0,0,0,0,0,0,0,0,0,0,0,0,0,0,0,0.0277,0.0277,0,0.0301,0.0301,0.0302,0.0361,0.0363,0.0364,0.0365,0.0435,0.0436,0.0437,0,0,0,0,0,0,0,0,0,0,0,0,0,0.0286,0.0285,0.0277,0.0277,0.0278,0.0301,0.0301,0.0302,0.0361,0.0363,0.0364,0.0366,0.0435,0.0436,0.0437,0,0,0,0,0,0,0,0,0,0,0,0,0,0.0293,0.0285,0.0277,0.031,0.0313,0.0301,0.0301,0.0302,0.0361,0.0363,0.0365,0.0366,0.0435,0.0436,0.0437,0.0406,0,0,0.044,0.0441,0,0,0,0,0,0,0,0,0.0293,0.0293,0.0305,0.0308,0.0311,0.033,0.033,0.0339,0.036,0.0343,0.0365,0.0367,0.0403,0.0407,0.0407,0.041,0.0413,0.044,0.0441,0.0442,0.0442,0,0,0,0,0,0,0,0.0292,0.0292,0.0287,0.0305,0.0309,0.0324,0.0328,0.0332,0.0363,0.0345,0.0349,0.0351,0.0405,0.0405,0.0409,0.0414,0.044,0.0441,0.0442,0.0442,0.0498,0.0499,0,0,0,0,0,0,0.0286,0.0291,0.0286,0.0288,0.0306,0.0323,0.0326,0.0322,0.0362,0.037,0.0349,0.0353,0.0403,0.0408,0.0412,0.048,0.0442,0.0443,0.0443,0.0497,0.0498,0.0499,0,0,0,0,0,0,0.0286,0.0285,0.0285,0.029,0.0292,0.0321,0.0316,0.0322,0.0352,0.0365,0.0374,0.0377,0.0404,0.041,0.0451,0.0479,0.0443,0.0444,0.0496,0.0498,0.0499,0.055,0,0,0,0,0,0,0.0286,0.0285,0.0282,0.029,0.0291,0.0292,0.0314,0.0321,0.0348,0.0355,0.0391,0.0398,0.0406,0.0449,0.0452,0.048,0.0445,0.0495,0.0497,0.0498,0.0547,0.0553,0.0558,0,0,0,0,0,0.0286,0.0277,0.0282,0.0282,0.0286,0.0292,0.0294,0.0321,0.0348,0.0357,0.0396,0.0398,0.0461,0.0451,0.0453,0.0483,0.0495,0.0497,0.0498,0.0545,0.0552,0.0558,0,0,0,0,0,0,0.028,0.0282,0.0288,0.028,0.0291,0.0302,0.0309,0.0332,0.0366,0.0386,0.0407,0.0416,0.0462,0.046,0.0448,0.0502,0.0478,0.0481,0.0513,0.0519,0.0524,0.0532,0.0446,0,0,0,0,0,0.0274,0.0269,0.0276,0.0271,0.0277,0.0297,0.0306,0.0329,0.0356,0.0375,0.041,0.0441,0.0463,0.0484,0.05,0.0526,0.0513,0.0546,0.0551,0.0556,0.0564,0.0565,0.0571,0.0506,0.0505,0.0505,0,0,0.0268,0.027,0.0266,0.027,0.028,0.0306,0.0308,0.033,0.0373,0.0375,0.0451,0.0461,0.0473,0.0512,0.0532,0.0521,0.0566,0.0558,0.0562,0.0568,0.0567,0.0574,0.0579,0.0507,0.0507,0.0506,0,0,0.0267,0.0258,0.0264,0.0276,0.0298,0.0314,0.0328,0.0362,0.0399,0.045,0.0471,0.0498,0.054,0.0556,0.0566,0.0604,0.0592,0.0614,0.0652,0.0653,0.0659,0.0663,0.0649,0.0652,0.0619,0.0619,0.0619,0,0.0266,0.0278,0.0266,0.0288,0.0311,0.0327,0.0363,0.0392,0.0446,0.0474,0.0486,0.0544,0.0559,0.0596,0.0622,0.0617,0.0613,0.0629,0.0661,0.0665,0.0669,0.0653,0.0655,0.0622,0.0622,0.0621,0.0621,0,0.0279,0.03,0.0305,0.0343,0.036,0.0389,0.0428,0.0467,0.0511,0.0541,0.0593,0.0605,0.0638,0.0646,0.0654,0.0692,0.0678,0.0665,0.0645,0.0678,0.0659,0.0661,0.0626,0.0625,0.0624,0.0623,0,0,0.0261,0.0309,0.0318,0.0348,0.0399,0.0413,0.048,0.0533,0.0572,0.0621,0.0666,0.0707,0.0708,0.0719,0.0721,0.0729,0.0755,0.0723,0.0722,0.0709,0.0755,0.0765,0.0767,0.0755,0.0756,0.0756,0.0728,0,0.0289,0.0345,0.0365,0.0428,0.0462,0.0495,0.0546,0.0593,0.0636,0.0681,0.0695,0.0735,0.0738,0.0752,0.0765,0.0756,0.0764,0.0763,0.0724,0.0723,0.0728,0.0771,0.0759,0.0729,0.073,0.073,0.073,0,0.0311,0.0345,0.0419,0.0474,0.049,0.0536,0.0604,0.0648,0.0701,0.0729,0.0763,0.0776,0.0808,0.0796,0.0803,0.0807,0.0797,0.0781,0.0779,0.0773,0.0737,0.069,0.0733,0.0733,0.0732,0.0732,0.0732,0,0.0312,0.0383,0.0448,0.0471,0.0536,0.058,0.0616,0.0672,0.0701,0.0762,0.0778,0.0814,0.0829,0.0827,0.0827,0.0819,0.0819,0.079,0.0781,0.078,0.0754,0.0749,0.0795,0.0795,0.0795,0.0795,0.0795,0,0.0336,0.0379,0.0458,0.0489,0.0543,0.0589,0.0645,0.0679,0.0728,0.0755,0.0802,0.0818,0.0844,0.0852,0.0837,0.0827,0.0828,0.0801,0.0784,0.0774,0.0773,0.0754,0.075,0.0794,0.0794,0.0794,0.0794,0,0.0322,0.0383,0.0437,0.0519,0.0548,0.058,0.0646,0.0672,0.0726,0.076,0.0783,0.083,0.0854,0.0866,0.086,0.084,0.0821,0.0816,0.081,0.0791,0.0771,0.0769,0.0788,0.0789,0.0789,0.0789,0.0789,0,0.0324,0.0359,0.0442,0.0467,0.0511,0.057,0.0604,0.0667,0.0694,0.0757,0.0765,0.0821,0.0852,0.0836,0.0857,0.0842,0.0837,0.0817,0.0799,0.0793,0.0775,0.0773,0.0771,0.079,0.079,0.079,0.079,0,0.0301,0.0337,0.037,0.0433,0.0483,0.0522,0.0584,0.06,0.0671,0.0718,0.0751,0.078,0.0812,0.0827,0.0847,0.0825,0.0824,0.0819,0.0817,0.0801,0.0795,0.0776,0.0774,0.0791,0.0791,0.0791,0.0791,0,0.0271,0.0276,0.0332,0.0382,0.0433,0.0475,0.051,0.0564,0.06,0.0686,0.0693,0.0749,0.0802,0.0818,0.0819,0.0831,0.081,0.0774,0.0774,0.0773,0.0789,0.0781,0.0771,0,0,0,0,0,0.0236,0.0243,0.028,0.0335,0.0386,0.0429,0.0496,0.0534,0.0611,0.0624,0.0665,0.0699,0.0741,0.0761,0.077,0.0807,0.0806,0.0815,0.0761,0.0797,0.0796,0.082,0,0,0,0,0,0,0.0208,0.0229,0.0258,0.0298,0.0333,0.0391,0.0434,0.0486,0.0504,0.058,0.0602,0.0668,0.0708,0.073,0.0757,0.0768,0.0725,0.0857,0.0856,0.0797,0.0796,0.0795,0.082,0,0,0,0,0]},{"header":{"parameterUnit":"m.s-1","parameterCategory":2,"la1":30.2991,"la2":30.254,"lo1":-89.0895,"lo2":-89.0444,"dy":0.0017,"dx":0.0017,"nx":28,"ny":28,"refTime":"2025-05-15T03:00:00:Z","depth":"4","parameterNumber":3,"parameterNumberName":"V-component_of_CURRENTS"},"data":[0,0,0,0,0,0,0,0,0,0,0,0,0,0,0,0,0,0,0,0,0,0,0,0,0,0,0,0,0,0,0,0,0,0,0,0,0,0,0,0,0,0,0,0,0,0,0,0,0,0,0,0,0,0,0,0,0,0,0.025,0.0251,0,0.0273,0.0273,0.0273,0.0247,0.0246,0.0245,0.0245,0.0119,0.0117,0.0114,0,0,0,0,0,0,0,0,0,0,0,0,0,0.0083,0.0087,0.025,0.0251,0.0252,0.0273,0.0273,0.0273,0.0247,0.0246,0.0245,0.0245,0.012,0.0117,0.0114,0,0,0,0,0,0,0,0,0,0,0,0,0,0.0132,0.0088,0.025,0.0244,0.0244,0.0273,0.0273,0.0273,0.0247,0.0246,0.0245,0.0244,0.0121,0.0117,0.0113,0.0106,0,0,0.01,0.0099,0,0,0,0,0,0,0,0,0.013,0.0138,0.0244,0.0245,0.0245,0.026,0.0168,0.0211,0.0247,0.0242,0.0245,0.0244,0.0156,0.0149,0.0151,0.01,0.0095,0.01,0.0097,0.0096,0.0095,0,0,0,0,0,0,0,0.0126,0.0136,0.0255,0.0245,0.0246,0.0206,0.0212,0.0176,0.0198,0.0242,0.0241,0.025,0.0154,0.0156,0.0148,0.0093,0.01,0.0096,0.0094,0.0092,-0.0088,-0.0091,0,0,0,0,0,0,0.0139,0.0134,0.0255,0.0256,0.0188,0.021,0.0217,0.0252,0.0201,0.0195,0.0251,0.0249,0.0163,0.0153,0.0143,0.004,0.0096,0.0092,0.0089,-0.0086,-0.0089,-0.0091,0,0,0,0,0,0,0.0136,0.0151,0.0254,0.0196,0.0207,0.0215,0.0254,0.0254,0.0249,0.0211,0.02,0.0247,0.0162,0.0149,0.0086,0.0038,0.009,0.0086,-0.0083,-0.0087,-0.009,-0.0109,0,0,0,0,0,0,0.0131,0.015,0.0178,0.0199,0.0212,0.0275,0.0256,0.0255,0.0258,0.0255,0.0203,0.0192,0.016,0.0092,0.0082,0.0033,0.0083,-0.008,-0.0085,-0.0089,-0.0105,-0.0112,-0.0118,0,0,0,0,0,0.0126,0.0184,0.018,0.0194,0.0252,0.0276,0.0278,0.0276,0.0259,0.0265,0.0207,0.0193,0.0056,0.0088,0.0076,0.0025,-0.0078,-0.0084,-0.0089,-0.0102,-0.0111,-0.0118,0,0,0,0,0,0,0.0142,0.0188,0.0184,0.0258,0.0261,0.0273,0.0293,0.0276,0.0241,0.023,0.0176,0.016,0.0085,0.0059,0.0094,-0.0043,-0.0019,-0.0026,-0.0025,-0.0034,-0.004,-0.0089,0.0079,0,0,0,0,0,0.0157,0.0206,0.0224,0.0281,0.0287,0.0282,0.0291,0.0283,0.0259,0.0245,0.0195,0.0129,0.0058,0.0017,-0.0032,-0.0098,-0.012,-0.0145,-0.0151,-0.0157,-0.0208,-0.0296,-0.0315,-0.0108,-0.0108,-0.0108,0,0,0.0185,0.0213,0.0245,0.0285,0.0292,0.0276,0.0285,0.0305,0.0253,0.0234,0.0151,0.0116,0.0038,-0.0043,-0.0081,-0.0075,-0.0209,-0.0163,-0.0167,-0.0217,-0.0303,-0.0324,-0.0341,-0.0112,-0.0111,-0.0111,0,0,0.0228,0.0283,0.0309,0.0305,0.0313,0.03,0.03,0.0291,0.0253,0.019,0.0138,0.0065,-0.0016,-0.0101,-0.0153,-0.023,-0.0233,-0.0237,-0.0323,-0.0406,-0.0424,-0.044,-0.0406,-0.042,-0.0251,-0.0251,-0.0251,0,0.0251,0.0263,0.0318,0.0311,0.0277,0.0299,0.0256,0.0239,0.0196,0.0127,0.0158,-0.0022,-0.0061,-0.0223,-0.0254,-0.0249,-0.0258,-0.0277,-0.0415,-0.0432,-0.0449,-0.0411,-0.0426,-0.0252,-0.0252,-0.0252,-0.0252,0,0.0273,0.0263,0.0281,0.0256,0.0245,0.0225,0.0191,0.0158,0.0117,0.0064,-0.007,-0.0118,-0.0246,-0.0255,-0.0283,-0.0439,-0.0387,-0.0397,-0.0389,-0.047,-0.0424,-0.0439,-0.0254,-0.0254,-0.0253,-0.0253,0,0,0.0332,0.0293,0.0287,0.0221,0.0188,0.0176,0.0099,-0.0004,-0.0075,-0.0124,-0.0248,-0.037,-0.0396,-0.0461,-0.0492,-0.0564,-0.0638,-0.0541,-0.0544,-0.0496,-0.0746,-0.0631,-0.0634,-0.0675,-0.068,-0.0684,-0.0632,0,0.029,0.0229,0.0217,0.0117,0.0056,0.0024,-0.0055,-0.013,-0.0185,-0.0272,-0.0362,-0.046,-0.0475,-0.0518,-0.061,-0.0627,-0.0695,-0.0647,-0.0687,-0.0687,-0.0569,-0.0657,-0.07,-0.0643,-0.0647,-0.0649,-0.0651,0,0.0253,0.0208,0.009,-0.0028,-0.0052,-0.0112,-0.0252,-0.0314,-0.0419,-0.0456,-0.0572,-0.0595,-0.0727,-0.0696,-0.0827,-0.0792,-0.0809,-0.0802,-0.08,-0.0721,-0.0606,-0.0571,-0.0678,-0.0676,-0.0674,-0.0672,-0.067,0,0.0177,0.0094,-0.0027,-0.0064,-0.0161,-0.025,-0.0311,-0.0408,-0.0442,-0.058,-0.0572,-0.0745,-0.0762,-0.0871,-0.0846,-0.0861,-0.0912,-0.0923,-0.0836,-0.0821,-0.0925,-0.0909,-0.1063,-0.1063,-0.1063,-0.1063,-0.1063,0,0.0072,-0.0025,-0.0077,-0.0151,-0.0259,-0.0327,-0.0433,-0.0503,-0.0563,-0.0569,-0.0683,-0.0671,-0.0813,-0.0821,-0.0868,-0.0859,-0.0941,-0.0882,-0.0844,-0.0916,-0.0902,-0.0928,-0.0913,-0.1061,-0.1061,-0.1062,-0.1062,0,-0.0045,-0.0085,-0.02,-0.0295,-0.0312,-0.0401,-0.0435,-0.0468,-0.0546,-0.054,-0.0567,-0.0617,-0.0643,-0.0707,-0.0799,-0.0825,-0.086,-0.0842,-0.0827,-0.078,-0.0703,-0.069,-0.0785,-0.0781,-0.0778,-0.0776,-0.0774,0,-0.0131,-0.0206,-0.026,-0.0259,-0.0317,-0.0395,-0.0401,-0.047,-0.0458,-0.0461,-0.0432,-0.0461,-0.0489,-0.0505,-0.0623,-0.0707,-0.073,-0.0733,-0.085,-0.0744,-0.0696,-0.0687,-0.0679,-0.0769,-0.0768,-0.0767,-0.0767,0,-0.0252,-0.0261,-0.0295,-0.0284,-0.0299,-0.0295,-0.0318,-0.0293,-0.0322,-0.0352,-0.0294,-0.0331,-0.0333,-0.0433,-0.0479,-0.0552,-0.0741,-0.0704,-0.0713,-0.0824,-0.0726,-0.0679,-0.0674,-0.0756,-0.0758,-0.0759,-0.0759,0,-0.028,-0.0283,-0.0262,-0.0268,-0.0247,-0.0207,-0.0232,-0.0188,-0.0185,-0.019,-0.0147,-0.0204,-0.0253,-0.0343,-0.0381,-0.0448,-0.051,-0.0559,-0.0577,-0.059,-0.0569,-0.0418,-0.0354,0,0,0,0,0,-0.0287,-0.023,-0.0219,-0.0189,-0.0175,-0.0174,-0.0143,-0.0154,-0.0153,-0.009,-0.0125,-0.0125,-0.0201,-0.0248,-0.03,-0.0363,-0.0536,-0.0426,-0.0606,-0.0699,-0.0711,-0.0715,0,0,0,0,0,0,-0.0242,-0.0202,-0.0192,-0.0124,-0.0104,-0.0073,-0.0067,-0.007,-0.0044,-0.0055,-0.0098,-0.013,-0.022,-0.017,-0.0299,-0.0322,-0.0439,-0.0478,-0.0479,-0.0692,-0.0703,-0.0713,-0.0721,0,0,0,0,0]}]]